Home   Weather   Manaus   Past weeks

Flag for Brazil Past Weather in Manaus, Amazonas, Brazil — Yesterday and Last 2 Weeks

Now
88 °F

Scattered clouds.


Feels Like: 96 °F
Forecast: 75 / 87 °F
Wind: 6 mph from South

Location: Manaus Aeroporto

Current Time: Jan 24, 2017 at 3:33:56 pm

Latest Report: Jan 24, 2017 at 3:00 pm


Visibility: N/A

Pressure: 29.80 "Hg

Humidity: 62%

Dew Point: 73 °F

Location of ManausLocation

Past Weather in Manaus — Graph

°F

Manaus Temperature Yesterday

Maximum temperature yesterday: 86 °F (at 5:00 pm)
Minimum temperature yesterday: 72 °F (at 12:00 am)
Average temperature yesterday: 78 °F

High & Low Weather Summary for the Past Weeks

 TemperatureHumidityPressure
High90 °F (Jan 10, 2:00 pm)100% (Jan 17, 2:00 pm)29.98 "Hg (Jan 17, 2:00 pm)
Low70 °F (Jan 17, 2:00 pm)52% (Jan 10, 3:00 pm)29.71 "Hg (Jan 15, 4:00 pm)
Average79 °F82%29.84 "Hg
* Reported Jan 9 2:00 pm — Jan 24 2:00 pm, Manaus, Weather by CustomWeather, © 2017

Note: Actual official high and low records may vary slightly from our data, if they occured in-between our weather recording intervals... More about our weather records

Advertising

Manaus Weather History for the Previous 24 Hours

Scroll right to see more
 ConditionsComfort  
Time TempWeatherWind HumidityBarometerVisibility
2:00 pm
Tue, Jan 24
88 °FScattered clouds.7 mph62%29.83 "HgN/A
1:00 pm88 °FScattered clouds.6 mph62%29.89 "HgN/A
12:00 pm86 °FScattered clouds.8 mph66%29.92 "HgN/A
11:00 am84 °FScattered clouds.8 mph70%29.95 "HgN/A
10:00 am82 °FPartly sunny.8 mph74%29.95 "HgN/A
9:18 am81 °FPartly sunny.10 mph79%29.95 "HgN/A
8:21 am79 °FPartly sunny.12 mph84%29.95 "HgN/A
8:00 am79 °FBroken clouds.7 mph84%29.92 "HgN/A
7:00 am77 °FBroken clouds.6 mph89%29.92 "HgN/A
6:00 am77 °FPartly cloudy.7 mph89%29.89 "HgN/A
5:00 am77 °FClear.8 mph89%29.89 "Hg10 mi
4:00 am75 °FClear.3 mph89%29.86 "Hg10 mi
3:00 am79 °FClear.5 mph84%29.86 "Hg10 mi
1:00 am77 °FClear.7 mph89%29.86 "Hg10 mi
12:00 am79 °FClear.6 mph89%29.89 "Hg10 mi
11:00 pm
Mon, Jan 23
79 °FClear.6 mph84%29.89 "Hg10 mi
10:00 pm79 °FClear.3 mph84%29.89 "Hg10 mi
9:00 pm79 °FClear.3 mph89%29.89 "Hg10 mi
8:00 pm81 °FClear.3 mph79%29.86 "Hg10 mi
7:00 pm81 °FPassing clouds.3 mph79%29.86 "HgN/A
6:00 pm82 °FScattered clouds.3 mph74%29.83 "HgN/A
5:00 pm86 °FScattered clouds.6 mph66%29.80 "HgN/A
4:00 pm84 °FScattered clouds.3 mph70%29.80 "HgN/A
3:00 pm84 °FBroken clouds.6 mph70%29.83 "HgN/A
Weather by CustomWeather, © 2017

See weather overviewHow to use our weather pages